FLOCK 3P-61

Last updated on Wed Feb 14 2018 16:20:32 GMT+0000 (Coordinated Universal Time)

1 42009U 17008BP 18045.47119697 .00001217 00000-0 53277-4 0 9992 2 42009 97.4659 111.0743 0009555 88.2220 272.0112 15.23933665 55390
UTC large
Height (km)
Speed (km/s)
/
Latitude / Longitude
Inclination (degrees)
Orbital Period (minutes)
Azimuth
Elevation
Range (km)
Doppler Factor

Next 0 passes for location: London (51.5072 / 0.1276)

Sorry there are no passes over London.